DW9996 Weather Reports


Display with metric or nautical units.
time (UTC)temp
F
wind
direction
speed
MPH
gust
MPH
rain 1hr
in
rain 24hr
in
rain mn
in
humidity
%
barometer
mb
20260906183019 60 347 9.0 17.0 0.00 0.00 0.00 74 1012.8
20260906181518 59 23 9.0 19.0 0.00 0.00 0.00 74 1013.0
20260906180022 59 355 8.0 22.0 0.00 0.00 0.00 75 1013.2
20260906174518 58 325 11.0 19.0 0.00 0.00 0.00 75 1013.5
20260906173014 58 17 10.0 18.0 0.00 0.00 0.00 73 1013.7
20260906171514 58 330 9.0 17.0 0.00 0.00 0.00 71 1013.5
20260906170014 58 12 9.0 15.0 0.00 0.00 0.00 72 1013.7
20260906164512 59 325 8.0 13.0 0.00 0.00 0.00 73 1013.7
20260906163010 60 5 5.0 9.0 0.00 0.00 0.00 72 1013.9
20260906161515 60 68 4.0 8.0 0.00 0.00 0.00 71 1013.9
20260906160008 60 23 3.0 8.0 0.00 0.00 0.00 71 1014.0
20260906154507 60 54 3.0 8.0 0.00 0.00 0.00 71 1014.0
20260906153007 60 77 4.0 11.0 0.00 0.00 0.00 72 1013.9
20260906151506 60 52 4.0 11.0 0.00 0.00 0.00 72 1014.2
20260906150011 60 78 6.0 12.0 0.00 0.00 0.00 72 1014.0
20260906144507 59 63 3.0 11.0 0.00 0.00 0.00 71 1013.9
20260906143113 59 43 3.0 7.0 0.00 0.00 0.00 71 1014.3
20260906141601 59 45 4.0 7.0 0.00 0.00 0.00 71 1014.5
20260906140059 59 360 2.0 6.0 0.00 0.00 0.00 70 1014.5
20260906134559 59 9 3.0 6.0 0.00 0.00 0.00 71 1014.6
20260906133059 59 10 4.0 8.0 0.00 0.00 0.00 71 1014.3
20260906131557 59 29 3.0 7.0 0.00 0.00 0.00 69 1014.6
20260906130055 58 323 4.0 10.0 0.00 0.00 0.00 67 1014.6
20260906124552 58 11 4.0 10.0 0.00 0.00 0.00 66 1014.3
20260906123052 57 348 5.0 8.0 0.00 0.00 0.00 63 1014.5
20260906121556 57 334 4.0 8.0 0.00 0.00 0.00 63 1014.4
20260906120109 57 12 6.0 10.0 0.00 0.00 0.00 62 1014.1
20260906114548 56 5 4.0 11.0 0.00 0.00 0.00 61 1014.4
20260906113052 56 336 5.0 12.0 0.00 0.00 0.00 61 1014.5
20260906111604 56 324 6.0 12.0 0.00 0.00 0.00 61 1014.4
20260906110045 56 325 5.0 12.0 0.00 0.00 0.00 61 1014.4
20260906104544 56 320 9.0 15.0 0.00 0.00 0.00 61 1014.6
20260906103044 56 341 7.0 12.0 0.00 0.00 0.00 61 1014.8
20260906101542 56 325 8.0 16.0 0.00 0.00 0.00 60 1014.7
20260906100041 56 360 9.0 18.0 0.00 0.00 0.00 60 1014.8
20260906094542 55 342 7.0 17.0 0.00 0.00 0.00 60 1014.9
20260906093041 55 333 9.0 19.0 0.00 0.00 0.00 60 1014.9
20260906091536 55 355 8.0 14.0 0.00 0.00 0.00 60 1014.9
20260906090034 55 342 8.0 17.0 0.00 0.00 0.00 62 1015.0
20260906084543 55 310 6.0 14.0 0.00 0.00 0.00 65 1015.1
20260906083035 55 350 8.0 14.0 0.00 0.00 0.00 67 1015.0
20260906081525 56 347 7.0 13.0 0.00 0.00 0.00 68 1015.1
20260906080029 56 334 7.0 13.0 0.00 0.00 0.00 71 1015.2
20260906074519 56 319 8.0 14.0 0.00 0.00 0.00 72 1015.4
20260906073016 57 13 7.0 16.0 0.00 0.00 0.00 73 1015.7
20260906071513 57 360 9.0 14.0 0.00 0.00 0.00 73 1016.0
20260906070011 57 355 8.0 12.0 0.00 0.00 0.00 73 1016.1
20260906064514 58 19 7.0 12.0 0.00 0.00 0.00 73 1016.2
20260906063007 57 9 7.0 12.0 0.00 0.00 0.00 73 1016.3
20260906061506 57 17 6.0 13.0 0.00 0.00 0.00 72 1016.3
20260906060004 57 5 7.0 11.0 0.00 0.00 0.00 73 1016.4
20260906054502 57 315 6.0 14.0 0.00 0.00 0.00 74 1016.5
20260906053002 58 346 6.0 12.0 0.00 0.00 0.00 74 1016.4
20260906051501 58 17 6.0 12.0 0.00 0.00 0.00 74 1016.5
20260906050100 58 331 7.0 14.0 0.00 0.00 0.00 74 1016.3
20260906044557 59 327 8.0 17.0 0.00 0.00 0.00 73 1015.7
20260906043059 59 11 13.0 19.0 0.00 0.00 0.00 73 1015.7
20260906041602 59 360 10.0 17.0 0.00 0.00 0.00 73 1015.7
20260906040056 59 320 10.0 17.0 0.00 0.00 0.00 72 1015.7
20260906034557 60 5 7.0 13.0 0.00 0.00 0.00 72 1015.7
20260906033055 60 346 9.0 15.0 0.00 0.00 0.00 71 1015.3
20260906031554 60 341 11.0 17.0 0.00 0.00 0.00 70 1015.0
20260906030054 60 355 10.0 16.0 0.00 0.00 0.00 70 1014.5
20260906024608 61 347 9.0 16.0 0.00 0.00 0.00 69 1014.4
20260906023054 61 360 8.0 16.0 0.00 0.00 0.00 68 1014.4
20260906021553 62 5 8.0 18.0 0.00 0.00 0.00 67 1014.2
20260906020052 62 338 9.0 16.0 0.00 0.00 0.00 65 1014.2
20260906014602 63 355 8.0 17.0 0.00 0.00 0.00 64 1014.3
20260906013052 64 343 9.0 17.0 0.00 0.00 0.00 62 1014.2
20260906011551 65 16 11.0 18.0 0.00 0.00 0.00 60 1014.2
20260906010051 66 355 10.0 20.0 0.00 0.00 0.00 58 1014.0
20260906004550 68 315 10.0 19.0 0.00 0.00 0.00 54 1014.1
20260906003108 70 346 11.0 21.0 0.00 0.00 0.00 49 1013.9
20260906001550 73 327 7.0 14.0 0.00 0.00 0.00 40 1014.0
20260906000053 73 360 9.0 16.0 0.00 0.00 0.00 38 1014.1
20260905234548 74 360 6.0 14.0 0.00 0.00 0.00 39 1014.1
20260905233048 74 25 6.0 13.0 0.00 0.00 0.00 38 1014.1
20260905231547 74 26 6.0 12.0 0.00 0.00 0.00 37 1013.9
20260905230046 74 342 8.0 15.0 0.00 0.00 0.00 36 1013.9
20260905224545 75 63 5.0 10.0 0.00 0.00 0.00 36 1014.0
20260905223044 75 50 4.0 16.0 0.00 0.00 0.00 36 1014.0
20260905221545 74 9 3.0 12.0 0.00 0.00 0.00 36 1014.0
20260905220045 74 28 6.0 11.0 0.00 0.00 0.00 36 1014.0
20260905214542 74 11 7.0 14.0 0.00 0.00 0.00 36 1014.4
20260905213042 74 360 3.0 11.0 0.00 0.00 0.00 38 1014.2
20260905211542 74 348 4.0 13.0 0.00 0.00 0.00 38 1014.3
20260905210037 73 35 2.0 9.0 0.00 0.00 0.00 39 1014.4
20260905204535 73 301 1.0 8.0 0.00 0.00 0.00 39 1014.3
20260905203035 73 330 5.0 11.0 0.00 0.00 0.00 39 1014.4
20260905201537 73 336 5.0 10.0 0.00 0.00 0.00 39 1014.6
20260905200033 72 328 6.0 11.0 0.00 0.00 0.00 41 1014.6
20260905194529 72 321 2.0 11.0 0.00 0.00 0.00 43 1014.7
20260905193028 71 25 6.0 10.0 0.00 0.00 0.00 43 1014.8
20260905191528 71 317 4.0 10.0 0.00 0.00 0.00 43 1014.9
20260905190032 71 360 3.0 10.0 0.00 0.00 0.00 47 1015.2
20260905184523 70 346 2.0 6.0 0.00 0.00 0.00 48 1015.3